Year,Month,Day,Hour,Minute,Value (Times are PST for temperature in C)
2018,06,09,00,00,10.70
2018,06,09,00,01,10.60
2018,06,09,00,02,10.60
2018,06,09,00,03,10.60
2018,06,09,00,04,10.60
2018,06,09,00,05,10.60
2018,06,09,00,06,10.60
2018,06,09,00,07,10.60
2018,06,09,00,08,10.50
2018,06,09,00,09,10.50
2018,06,09,00,10,10.50
2018,06,09,00,11,10.50
2018,06,09,00,12,10.50
2018,06,09,00,13,10.50
2018,06,09,00,14,10.50
2018,06,09,00,15,10.50
2018,06,09,00,16,10.50
2018,06,09,00,17,10.50
2018,06,09,00,18,10.50
2018,06,09,00,19,10.50
2018,06,09,00,20,10.40
2018,06,09,00,21,10.40
2018,06,09,00,22,10.40
2018,06,09,00,23,10.40
2018,06,09,00,24,10.40
2018,06,09,00,25,10.40
2018,06,09,00,26,10.40
2018,06,09,00,27,10.40
2018,06,09,00,28,10.40
2018,06,09,00,29,10.40
2018,06,09,00,30,10.40
2018,06,09,00,31,10.30
2018,06,09,00,32,10.30
2018,06,09,00,33,10.30
2018,06,09,00,34,10.30
2018,06,09,00,35,10.30
2018,06,09,00,36,10.30
2018,06,09,00,37,10.30
2018,06,09,00,38,10.30
2018,06,09,00,39,10.30
2018,06,09,00,40,10.30
2018,06,09,00,41,10.30
2018,06,09,00,42,10.30
2018,06,09,00,43,10.30
2018,06,09,00,44,10.30
2018,06,09,00,45,10.30
2018,06,09,00,46,10.20
2018,06,09,00,47,10.20
2018,06,09,00,48,10.20
2018,06,09,00,49,10.20
2018,06,09,00,50,10.20
2018,06,09,00,51,10.10
2018,06,09,00,52,10.10
2018,06,09,00,53,10.10
2018,06,09,00,54,10.10
2018,06,09,00,55,10.10
2018,06,09,00,56,10.00
2018,06,09,00,57,10.00
2018,06,09,00,58,10.00
2018,06,09,00,59,10.00
2018,06,09,01,00,9.90
2018,06,09,01,01,9.90
2018,06,09,01,02,9.90
2018,06,09,01,03,9.90
2018,06,09,01,04,9.90
2018,06,09,01,05,9.90
2018,06,09,01,06,9.90
2018,06,09,01,07,9.90
2018,06,09,01,08,9.90
2018,06,09,01,09,9.90
2018,06,09,01,10,9.90
2018,06,09,01,11,9.90
2018,06,09,01,12,9.90
2018,06,09,01,13,9.90
2018,06,09,01,14,9.80
2018,06,09,01,15,9.80
2018,06,09,01,16,9.80
2018,06,09,01,17,9.80
2018,06,09,01,18,9.80
2018,06,09,01,19,9.80
2018,06,09,01,20,9.80
2018,06,09,01,21,9.80
2018,06,09,01,22,9.80
2018,06,09,01,23,9.80
2018,06,09,01,24,9.80
2018,06,09,01,25,9.70
2018,06,09,01,26,9.70
2018,06,09,01,27,9.70
2018,06,09,01,28,9.70
2018,06,09,01,29,9.70
2018,06,09,01,30,9.70
2018,06,09,01,31,9.70
2018,06,09,01,32,9.70
2018,06,09,01,33,9.70
2018,06,09,01,34,9.70
2018,06,09,01,35,9.70
2018,06,09,01,36,9.70
2018,06,09,01,37,9.70
2018,06,09,01,38,9.70
2018,06,09,01,39,9.70
2018,06,09,01,40,9.70
2018,06,09,01,41,9.70
2018,06,09,01,42,9.70
2018,06,09,01,43,9.70
2018,06,09,01,44,9.70
2018,06,09,01,45,9.70
2018,06,09,01,46,9.70
2018,06,09,01,47,9.70
2018,06,09,01,48,9.70
2018,06,09,01,49,9.60
2018,06,09,01,50,9.60
2018,06,09,01,51,9.60
2018,06,09,01,52,9.60
2018,06,09,01,53,9.60
2018,06,09,01,54,9.60
2018,06,09,01,55,9.60
2018,06,09,01,56,9.60
2018,06,09,01,57,9.60
2018,06,09,01,58,9.60
2018,06,09,01,59,9.60
2018,06,09,02,00,9.50
2018,06,09,02,01,9.50
2018,06,09,02,02,9.50
2018,06,09,02,03,9.40
2018,06,09,02,04,9.40
2018,06,09,02,05,9.40
2018,06,09,02,06,9.40
2018,06,09,02,07,9.40
2018,06,09,02,08,9.40
2018,06,09,02,09,9.30
2018,06,09,02,10,9.30
2018,06,09,02,11,9.30
2018,06,09,02,12,9.30
2018,06,09,02,13,9.30
2018,06,09,02,14,9.30
2018,06,09,02,15,9.30
2018,06,09,02,16,9.30
2018,06,09,02,17,9.30
2018,06,09,02,18,9.30
2018,06,09,02,19,9.30
2018,06,09,02,20,9.30
2018,06,09,02,21,9.30
2018,06,09,02,22,9.30
2018,06,09,02,23,9.30
2018,06,09,02,24,9.30
2018,06,09,02,25,9.30
2018,06,09,02,26,9.30
2018,06,09,02,27,9.30
2018,06,09,02,28,9.30
2018,06,09,02,29,9.30
2018,06,09,02,30,9.30
2018,06,09,02,31,9.30
2018,06,09,02,32,9.30
2018,06,09,02,33,9.30
2018,06,09,02,34,9.30
2018,06,09,02,35,9.30
2018,06,09,02,36,9.30
2018,06,09,02,37,9.30
2018,06,09,02,38,9.30
2018,06,09,02,39,9.30
2018,06,09,02,40,9.30
2018,06,09,02,41,9.30
2018,06,09,02,42,9.30
2018,06,09,02,43,9.30
2018,06,09,02,44,9.30
2018,06,09,02,45,9.30
2018,06,09,02,46,9.30
2018,06,09,02,47,9.20
2018,06,09,02,48,9.20
2018,06,09,02,49,9.20
2018,06,09,02,50,9.20
2018,06,09,02,51,9.20
2018,06,09,02,52,9.20
2018,06,09,02,53,9.20
2018,06,09,02,54,9.20
2018,06,09,02,55,9.20
2018,06,09,02,56,9.20
2018,06,09,02,57,9.20
2018,06,09,02,58,9.20
2018,06,09,02,59,9.20
2018,06,09,03,00,9.20
2018,06,09,03,01,9.10
2018,06,09,03,02,9.10
2018,06,09,03,03,9.10
2018,06,09,03,04,9.10
2018,06,09,03,05,9.10
2018,06,09,03,06,9.10
2018,06,09,03,07,9.10
2018,06,09,03,08,9.10
2018,06,09,03,09,9.10
2018,06,09,03,10,9.10
2018,06,09,03,11,9.10
2018,06,09,03,12,9.10
2018,06,09,03,13,9.10
2018,06,09,03,14,9.10
2018,06,09,03,15,9.10
2018,06,09,03,16,9.10
2018,06,09,03,17,9.10
2018,06,09,03,18,9.10
2018,06,09,03,19,9.00
2018,06,09,03,20,9.00
2018,06,09,03,21,9.00
2018,06,09,03,22,9.00
2018,06,09,03,23,9.00
2018,06,09,03,24,8.90
2018,06,09,03,25,8.90
2018,06,09,03,26,8.90
2018,06,09,03,27,8.90
2018,06,09,03,28,8.90
2018,06,09,03,29,8.90
2018,06,09,03,30,8.90
2018,06,09,03,31,8.90
2018,06,09,03,32,8.90
2018,06,09,03,33,8.80
2018,06,09,03,34,8.80
2018,06,09,03,35,8.80
2018,06,09,03,36,8.80
2018,06,09,03,37,8.80
2018,06,09,03,38,8.80
2018,06,09,03,39,8.80
2018,06,09,03,40,8.70
2018,06,09,03,41,8.70
2018,06,09,03,42,8.70
2018,06,09,03,43,8.70
2018,06,09,03,44,8.70
2018,06,09,03,45,8.70
2018,06,09,03,46,8.70
2018,06,09,03,47,8.60
2018,06,09,03,48,8.60
2018,06,09,03,49,8.60
2018,06,09,03,50,8.60
2018,06,09,03,51,8.60
2018,06,09,03,52,8.60
2018,06,09,03,53,8.60
2018,06,09,03,54,8.60
2018,06,09,03,55,8.60
2018,06,09,03,56,8.60
2018,06,09,03,57,8.60
2018,06,09,03,58,8.60
2018,06,09,03,59,8.60
2018,06,09,04,00,8.60
2018,06,09,04,01,8.60
2018,06,09,04,02,8.60
2018,06,09,04,03,8.60
2018,06,09,04,04,8.60
2018,06,09,04,05,8.60
2018,06,09,04,06,8.50
2018,06,09,04,07,8.50
2018,06,09,04,08,8.50
2018,06,09,04,09,8.50
2018,06,09,04,10,8.40
2018,06,09,04,11,8.40
2018,06,09,04,12,8.40
2018,06,09,04,13,8.40
2018,06,09,04,14,8.40
2018,06,09,04,15,8.40
2018,06,09,04,16,8.40
2018,06,09,04,17,8.40
2018,06,09,04,18,8.30
2018,06,09,04,19,8.30
2018,06,09,04,20,8.30
2018,06,09,04,21,8.30
2018,06,09,04,22,8.30
2018,06,09,04,23,8.30
2018,06,09,04,24,8.30
2018,06,09,04,25,8.30
2018,06,09,04,26,8.30
2018,06,09,04,27,8.30
2018,06,09,04,28,8.30
2018,06,09,04,29,8.30
2018,06,09,04,30,8.30
2018,06,09,04,31,8.30
2018,06,09,04,32,8.30
2018,06,09,04,33,8.30
2018,06,09,04,34,8.30
2018,06,09,04,35,8.30
2018,06,09,04,36,8.30
2018,06,09,04,37,8.30
2018,06,09,04,38,8.30
2018,06,09,04,39,8.30
2018,06,09,04,40,8.30
2018,06,09,04,41,8.30
2018,06,09,04,42,8.30
2018,06,09,04,43,8.30
2018,06,09,04,44,8.30
2018,06,09,04,45,8.30
2018,06,09,04,46,8.30
2018,06,09,04,47,8.20
2018,06,09,04,48,8.20
2018,06,09,04,49,8.20
2018,06,09,04,50,8.20
2018,06,09,04,51,8.20
2018,06,09,04,52,8.20
2018,06,09,04,53,8.20
2018,06,09,04,54,8.20
2018,06,09,04,55,8.20
2018,06,09,04,56,8.20
2018,06,09,04,57,8.30
2018,06,09,04,58,8.30
2018,06,09,04,59,8.30
2018,06,09,05,00,8.30
2018,06,09,05,01,8.30
2018,06,09,05,02,8.30
2018,06,09,05,03,8.30
2018,06,09,05,04,8.30
2018,06,09,05,05,8.30
2018,06,09,05,06,8.40
2018,06,09,05,07,8.40
2018,06,09,05,08,8.40
2018,06,09,05,09,8.40
2018,06,09,05,10,8.40
2018,06,09,05,11,8.40
2018,06,09,05,12,8.40
2018,06,09,05,13,8.40
2018,06,09,05,14,8.40
2018,06,09,05,15,8.30
2018,06,09,05,16,8.30
2018,06,09,05,17,8.30
2018,06,09,05,18,8.30
2018,06,09,05,19,8.30
2018,06,09,05,20,8.30
2018,06,09,05,21,8.30
2018,06,09,05,22,8.30
2018,06,09,05,23,8.30
2018,06,09,05,24,8.30
2018,06,09,05,25,8.30
2018,06,09,05,26,8.20
2018,06,09,05,27,8.20
2018,06,09,05,28,8.20
2018,06,09,05,29,8.20
2018,06,09,05,30,8.20
2018,06,09,05,31,8.20
2018,06,09,05,32,8.20
2018,06,09,05,33,8.20
2018,06,09,05,34,8.20
2018,06,09,05,35,8.20
2018,06,09,05,36,8.20
2018,06,09,05,37,8.10
2018,06,09,05,38,8.10
2018,06,09,05,39,8.10
2018,06,09,05,40,8.10
2018,06,09,05,41,8.10
2018,06,09,05,42,8.10
2018,06,09,05,43,8.10
2018,06,09,05,44,8.10
2018,06,09,05,45,8.10
2018,06,09,05,46,8.10
2018,06,09,05,47,8.10
2018,06,09,05,48,8.10
2018,06,09,05,49,8.10
2018,06,09,05,50,8.10
2018,06,09,05,51,8.10
2018,06,09,05,52,8.10
2018,06,09,05,53,8.10
2018,06,09,05,54,8.10
2018,06,09,05,55,8.10
2018,06,09,05,56,8.10
2018,06,09,05,57,8.10
2018,06,09,05,58,8.00
2018,06,09,05,59,8.10
2018,06,09,06,00,8.00
2018,06,09,06,01,8.00
2018,06,09,06,02,8.00
2018,06,09,06,03,8.00
2018,06,09,06,04,8.10
2018,06,09,06,05,8.10
2018,06,09,06,06,8.10
2018,06,09,06,07,8.10
2018,06,09,06,08,8.10
2018,06,09,06,09,8.10
2018,06,09,06,10,8.10
2018,06,09,06,11,8.10
2018,06,09,06,12,8.20
2018,06,09,06,13,8.20
2018,06,09,06,14,8.20
2018,06,09,06,15,8.20
2018,06,09,06,16,8.20
2018,06,09,06,17,8.30
2018,06,09,06,18,8.30
2018,06,09,06,19,8.30
2018,06,09,06,20,8.30
2018,06,09,06,21,8.40
2018,06,09,06,22,8.40
2018,06,09,06,23,8.40
2018,06,09,06,24,8.40
2018,06,09,06,25,8.50
2018,06,09,06,26,8.50
2018,06,09,06,27,8.50
2018,06,09,06,28,8.50
2018,06,09,06,29,8.60
2018,06,09,06,30,8.60
2018,06,09,06,31,8.60
2018,06,09,06,32,8.60
2018,06,09,06,33,8.70
2018,06,09,06,34,8.70
2018,06,09,06,35,8.70
2018,06,09,06,36,8.70
2018,06,09,06,37,8.60
2018,06,09,06,38,8.60
2018,06,09,06,39,8.60
2018,06,09,06,40,8.60
2018,06,09,06,41,8.60
2018,06,09,06,42,8.60
2018,06,09,06,43,8.60
2018,06,09,06,44,8.60
2018,06,09,06,45,8.60
2018,06,09,06,46,8.60
2018,06,09,06,47,8.60
2018,06,09,06,48,8.60
2018,06,09,06,49,8.60
2018,06,09,06,50,8.50
2018,06,09,06,51,8.50
2018,06,09,06,52,8.50
2018,06,09,06,53,8.50
2018,06,09,06,54,8.50
2018,06,09,06,55,8.50
2018,06,09,06,56,8.50
2018,06,09,06,57,8.50
2018,06,09,06,58,8.50
2018,06,09,06,59,8.50
2018,06,09,07,00,8.50
2018,06,09,07,01,8.50
2018,06,09,07,02,8.50
2018,06,09,07,03,8.50
2018,06,09,07,04,8.60
2018,06,09,07,05,8.60
2018,06,09,07,06,8.60
2018,06,09,07,07,8.60
2018,06,09,07,08,8.60
2018,06,09,07,09,8.60
2018,06,09,07,10,8.60
2018,06,09,07,11,8.70
2018,06,09,07,12,8.70
2018,06,09,07,13,8.70
2018,06,09,07,14,8.70
2018,06,09,07,15,8.70
2018,06,09,07,16,8.70
2018,06,09,07,17,8.70
2018,06,09,07,18,8.70
2018,06,09,07,19,8.70
2018,06,09,07,20,8.80
2018,06,09,07,21,8.80
2018,06,09,07,22,8.80
2018,06,09,07,23,8.80
2018,06,09,07,24,8.80
2018,06,09,07,25,8.80
2018,06,09,07,26,8.80
2018,06,09,07,27,8.80
2018,06,09,07,28,8.90
2018,06,09,07,29,8.90
2018,06,09,07,30,8.90
2018,06,09,07,31,8.90
2018,06,09,07,32,8.90
2018,06,09,07,33,9.00
2018,06,09,07,34,9.00
2018,06,09,07,35,9.10
2018,06,09,07,36,9.10
2018,06,09,07,37,9.10
2018,06,09,07,38,9.20
2018,06,09,07,39,9.20
2018,06,09,07,40,9.20
2018,06,09,07,41,9.20
2018,06,09,07,42,9.20
2018,06,09,07,43,9.20
2018,06,09,07,44,9.20
2018,06,09,07,45,9.30
2018,06,09,07,46,9.30
2018,06,09,07,47,9.30
2018,06,09,07,48,9.30
2018,06,09,07,49,9.30
2018,06,09,07,50,9.40
2018,06,09,07,51,9.40
2018,06,09,07,52,9.40
2018,06,09,07,53,9.40
2018,06,09,07,54,9.50
2018,06,09,07,55,9.50
2018,06,09,07,56,9.60
2018,06,09,07,57,9.60
2018,06,09,07,58,9.60
2018,06,09,07,59,9.60
2018,06,09,08,00,9.50
2018,06,09,08,01,9.50
2018,06,09,08,02,9.50
2018,06,09,08,03,9.60
2018,06,09,08,04,9.60
2018,06,09,08,05,9.60
2018,06,09,08,06,9.60
2018,06,09,08,07,9.60
2018,06,09,08,08,9.60
2018,06,09,08,09,9.60
2018,06,09,08,10,9.60
2018,06,09,08,11,9.60
2018,06,09,08,12,9.70
2018,06,09,08,13,9.70
2018,06,09,08,14,9.80
2018,06,09,08,15,9.80
2018,06,09,08,16,9.90
2018,06,09,08,17,10.00
2018,06,09,08,18,10.00
2018,06,09,08,19,10.10
2018,06,09,08,20,10.20
2018,06,09,08,21,10.20
2018,06,09,08,22,10.30
2018,06,09,08,23,10.30
2018,06,09,08,24,10.30
2018,06,09,08,25,10.30
2018,06,09,08,26,10.30
2018,06,09,08,27,10.30
2018,06,09,08,28,10.40
2018,06,09,08,29,10.40
2018,06,09,08,30,10.50
2018,06,09,08,31,10.60
2018,06,09,08,32,10.60
2018,06,09,08,33,10.70
2018,06,09,08,34,10.80
2018,06,09,08,35,10.90
2018,06,09,08,36,11.10
2018,06,09,08,37,11.20
2018,06,09,08,38,11.20
2018,06,09,08,39,11.30
2018,06,09,08,40,11.40
2018,06,09,08,41,11.50
2018,06,09,08,42,11.70
2018,06,09,08,43,11.80
2018,06,09,08,44,11.90
2018,06,09,08,45,12.00
2018,06,09,08,46,12.10
2018,06,09,08,47,12.20
2018,06,09,08,48,12.30
2018,06,09,08,49,12.30
2018,06,09,08,50,12.30
2018,06,09,08,51,12.40
2018,06,09,08,52,12.40
2018,06,09,08,53,12.40
2018,06,09,08,54,12.50
2018,06,09,08,55,12.50
2018,06,09,08,56,12.60
2018,06,09,08,57,12.70
2018,06,09,08,58,12.80
2018,06,09,08,59,12.90
2018,06,09,09,00,12.90
2018,06,09,09,01,13.00
2018,06,09,09,02,13.10
2018,06,09,09,03,13.30
2018,06,09,09,04,13.40
2018,06,09,09,05,13.40
2018,06,09,09,06,13.50
2018,06,09,09,07,13.60
2018,06,09,09,08,13.70
2018,06,09,09,09,13.80
2018,06,09,09,10,13.80
2018,06,09,09,11,13.90
2018,06,09,09,12,13.90
2018,06,09,09,13,13.90
2018,06,09,09,14,14.00
2018,06,09,09,15,14.00
2018,06,09,09,16,13.90
2018,06,09,09,17,13.80
2018,06,09,09,18,13.70
2018,06,09,09,19,13.60
2018,06,09,09,20,13.50
2018,06,09,09,21,13.50
2018,06,09,09,22,13.40
2018,06,09,09,23,13.50
2018,06,09,09,24,13.40
2018,06,09,09,25,13.40
2018,06,09,09,26,13.50
2018,06,09,09,27,13.50
2018,06,09,09,28,13.70
2018,06,09,09,29,13.80
2018,06,09,09,30,13.80
2018,06,09,09,31,13.90
2018,06,09,09,32,13.90
2018,06,09,09,33,13.90
2018,06,09,09,34,13.90
2018,06,09,09,35,13.90
2018,06,09,09,36,13.80
2018,06,09,09,37,13.80
2018,06,09,09,38,13.70
2018,06,09,09,39,13.70
2018,06,09,09,40,13.70
2018,06,09,09,41,13.70
2018,06,09,09,42,13.70
2018,06,09,09,43,13.70
2018,06,09,09,44,13.70
2018,06,09,09,45,13.70
2018,06,09,09,46,13.70
2018,06,09,09,47,13.70
2018,06,09,09,48,13.80
2018,06,09,09,49,13.80
2018,06,09,09,50,13.80
2018,06,09,09,51,13.70
2018,06,09,09,52,13.70
2018,06,09,09,53,13.60
2018,06,09,09,54,13.60
2018,06,09,09,55,13.50
2018,06,09,09,56,13.40
2018,06,09,09,57,13.40
2018,06,09,09,58,13.40
2018,06,09,09,59,13.40
2018,06,09,10,00,13.40
2018,06,09,10,01,13.40
2018,06,09,10,02,13.40
2018,06,09,10,03,13.40
2018,06,09,10,04,13.50
2018,06,09,10,05,13.50
2018,06,09,10,06,13.60
2018,06,09,10,07,13.70
2018,06,09,10,08,13.70
2018,06,09,10,09,13.70
2018,06,09,10,10,13.70
2018,06,09,10,11,13.70
2018,06,09,10,12,13.80
2018,06,09,10,13,13.80
2018,06,09,10,14,13.80
2018,06,09,10,15,13.80
2018,06,09,10,16,13.80
2018,06,09,10,17,13.70
2018,06,09,10,18,13.60
2018,06,09,10,19,13.50
2018,06,09,10,20,13.40
2018,06,09,10,21,13.40
2018,06,09,10,22,13.30
2018,06,09,10,23,13.30
2018,06,09,10,24,13.30
2018,06,09,10,25,13.30
2018,06,09,10,26,13.30
2018,06,09,10,27,13.40
2018,06,09,10,28,13.50
2018,06,09,10,29,13.60
2018,06,09,10,30,13.60
2018,06,09,10,31,13.70
2018,06,09,10,32,13.70
2018,06,09,10,33,13.70
2018,06,09,10,34,13.80
2018,06,09,10,35,13.90
2018,06,09,10,36,14.10
2018,06,09,10,37,14.20
2018,06,09,10,38,14.40
2018,06,09,10,39,14.60
2018,06,09,10,40,14.70
2018,06,09,10,41,14.90
2018,06,09,10,42,15.10
2018,06,09,10,43,15.30
2018,06,09,10,44,15.40
2018,06,09,10,45,15.60
2018,06,09,10,46,15.80
2018,06,09,10,47,16.00
2018,06,09,10,48,16.10
2018,06,09,10,49,16.30
2018,06,09,10,50,16.30
2018,06,09,10,51,16.40
2018,06,09,10,52,16.40
2018,06,09,10,53,16.40
2018,06,09,10,54,16.50
2018,06,09,10,55,16.60
2018,06,09,10,56,16.60
2018,06,09,10,57,16.70
2018,06,09,10,58,16.80
2018,06,09,10,59,16.80
2018,06,09,11,00,16.80
2018,06,09,11,01,16.80
2018,06,09,11,02,16.70
2018,06,09,11,03,16.70
2018,06,09,11,04,16.60
2018,06,09,11,05,16.50
2018,06,09,11,06,16.40
2018,06,09,11,07,16.30
2018,06,09,11,08,16.20
2018,06,09,11,09,16.10
2018,06,09,11,10,16.00
2018,06,09,11,11,16.00
2018,06,09,11,12,15.90
2018,06,09,11,13,15.80
2018,06,09,11,14,15.80
2018,06,09,11,15,15.80
2018,06,09,11,16,15.70
2018,06,09,11,17,15.70
2018,06,09,11,18,15.60
2018,06,09,11,19,15.50
2018,06,09,11,20,15.30
2018,06,09,11,21,15.20
2018,06,09,11,22,15.10
2018,06,09,11,23,15.10
2018,06,09,11,24,15.00
2018,06,09,11,25,14.90
2018,06,09,11,26,14.90
2018,06,09,11,27,14.90
2018,06,09,11,28,14.90
2018,06,09,11,29,15.00
2018,06,09,11,30,15.10
2018,06,09,11,31,15.20
2018,06,09,11,32,15.30
2018,06,09,11,33,15.40
2018,06,09,11,34,15.50
2018,06,09,11,35,15.60
2018,06,09,11,36,15.80
2018,06,09,11,37,15.90
2018,06,09,11,38,16.00
2018,06,09,11,39,16.10
2018,06,09,11,40,16.20
2018,06,09,11,41,16.20
2018,06,09,11,42,16.30
2018,06,09,11,43,16.30
2018,06,09,11,44,16.30
2018,06,09,11,45,16.20
2018,06,09,11,46,16.10
2018,06,09,11,47,16.10
2018,06,09,11,48,16.10
2018,06,09,11,49,16.10
2018,06,09,11,50,16.20
2018,06,09,11,51,16.20
2018,06,09,11,52,16.20
2018,06,09,11,53,16.30
2018,06,09,11,54,16.30
2018,06,09,11,55,16.40
2018,06,09,11,56,16.50
2018,06,09,11,57,16.60
2018,06,09,11,58,16.60
2018,06,09,11,59,16.70
2018,06,09,12,00,16.80
2018,06,09,12,01,16.80
2018,06,09,12,02,16.90
2018,06,09,12,03,16.90
2018,06,09,12,04,17.00
2018,06,09,12,05,17.10
2018,06,09,12,06,17.20
2018,06,09,12,07,17.30
2018,06,09,12,08,17.30
2018,06,09,12,09,17.30
2018,06,09,12,10,17.30
2018,06,09,12,11,17.40
2018,06,09,12,12,17.40
2018,06,09,12,13,17.50
2018,06,09,12,14,17.60
2018,06,09,12,15,17.60
2018,06,09,12,16,17.60
2018,06,09,12,17,17.60
2018,06,09,12,18,17.60
2018,06,09,12,19,17.50
2018,06,09,12,20,17.60
2018,06,09,12,21,17.60
2018,06,09,12,22,17.60
2018,06,09,12,23,17.60
2018,06,09,12,24,17.60
2018,06,09,12,25,17.70
2018,06,09,12,26,17.70
2018,06,09,12,27,17.70
2018,06,09,12,28,17.70
2018,06,09,12,29,17.70
2018,06,09,12,30,17.80
2018,06,09,12,31,17.80
2018,06,09,12,32,17.90
2018,06,09,12,33,18.00
2018,06,09,12,34,18.10
2018,06,09,12,35,18.10
2018,06,09,12,36,18.20
2018,06,09,12,37,18.10
2018,06,09,12,38,18.10
2018,06,09,12,39,18.10
2018,06,09,12,40,18.00
2018,06,09,12,41,18.10
2018,06,09,12,42,18.10
2018,06,09,12,43,18.10
2018,06,09,12,44,18.00
2018,06,09,12,45,18.00
2018,06,09,12,46,17.90
2018,06,09,12,47,17.90
2018,06,09,12,48,17.90
2018,06,09,12,49,17.90
2018,06,09,12,50,17.80
2018,06,09,12,51,17.70
2018,06,09,12,52,17.70
2018,06,09,12,53,17.70
2018,06,09,12,54,17.80
2018,06,09,12,55,17.80
2018,06,09,12,56,17.90
2018,06,09,12,57,18.00
2018,06,09,12,58,18.00
2018,06,09,12,59,18.10
2018,06,09,13,00,18.20
2018,06,09,13,01,18.20
2018,06,09,13,02,18.30
2018,06,09,13,03,18.30
2018,06,09,13,04,18.40
2018,06,09,13,05,18.40
2018,06,09,13,06,18.40
2018,06,09,13,07,18.40
2018,06,09,13,08,18.40
2018,06,09,13,09,18.40
2018,06,09,13,10,18.50
2018,06,09,13,11,18.50
2018,06,09,13,12,18.60
2018,06,09,13,13,18.70
2018,06,09,13,14,18.80
2018,06,09,13,15,18.90
2018,06,09,13,16,19.00
2018,06,09,13,17,19.10
2018,06,09,13,18,19.20
2018,06,09,13,19,19.20
2018,06,09,13,20,19.20
2018,06,09,13,21,19.20
2018,06,09,13,22,19.20
2018,06,09,13,23,19.10
2018,06,09,13,24,19.00
2018,06,09,13,25,19.00
2018,06,09,13,26,19.10
2018,06,09,13,27,19.20
2018,06,09,13,28,19.20
2018,06,09,13,29,19.30
2018,06,09,13,30,19.40
2018,06,09,13,31,19.40
2018,06,09,13,32,19.30
2018,06,09,13,33,19.30
2018,06,09,13,34,19.10
2018,06,09,13,35,18.80
2018,06,09,13,36,18.70
2018,06,09,13,37,18.60
2018,06,09,13,38,18.50
2018,06,09,13,39,18.40
2018,06,09,13,40,18.20
2018,06,09,13,41,18.00
2018,06,09,13,42,17.80
2018,06,09,13,43,17.60
2018,06,09,13,44,17.50
2018,06,09,13,45,17.40
2018,06,09,13,46,17.30
2018,06,09,13,47,17.20
2018,06,09,13,48,17.10
2018,06,09,13,49,17.00
2018,06,09,13,50,16.90
2018,06,09,13,51,16.80
2018,06,09,13,52,16.80
2018,06,09,13,53,16.80
2018,06,09,13,54,16.80
2018,06,09,13,55,16.80
2018,06,09,13,56,16.70
2018,06,09,13,57,16.60
2018,06,09,13,58,16.60
2018,06,09,13,59,16.50
2018,06,09,14,00,16.40
2018,06,09,14,01,16.30
2018,06,09,14,02,16.30
2018,06,09,14,03,16.20
2018,06,09,14,04,16.10
2018,06,09,14,05,16.10
2018,06,09,14,06,16.00
2018,06,09,14,07,16.00
2018,06,09,14,08,15.90
2018,06,09,14,09,15.90
2018,06,09,14,10,15.90
2018,06,09,14,11,15.80
2018,06,09,14,12,15.80
2018,06,09,14,13,15.70
2018,06,09,14,14,15.70
2018,06,09,14,15,15.60
2018,06,09,14,16,15.50
2018,06,09,14,17,15.50
2018,06,09,14,18,15.40
2018,06,09,14,19,15.30
2018,06,09,14,20,15.30
2018,06,09,14,21,15.30
2018,06,09,14,22,15.30
2018,06,09,14,23,15.30
2018,06,09,14,24,15.20
2018,06,09,14,25,15.20
2018,06,09,14,26,15.10
2018,06,09,14,27,15.10
2018,06,09,14,28,15.00
2018,06,09,14,29,15.00
2018,06,09,14,30,14.90
2018,06,09,14,31,14.90
2018,06,09,14,32,14.90
2018,06,09,14,33,14.80
2018,06,09,14,34,14.70
2018,06,09,14,35,14.60
2018,06,09,14,36,14.50
2018,06,09,14,37,14.50
2018,06,09,14,38,14.40
2018,06,09,14,39,14.30
2018,06,09,14,40,14.30
2018,06,09,14,41,14.20
2018,06,09,14,42,14.20
2018,06,09,14,43,14.20
2018,06,09,14,44,14.10
2018,06,09,14,45,14.10
2018,06,09,14,46,14.10
2018,06,09,14,47,14.00
2018,06,09,14,48,14.00
2018,06,09,14,49,14.00
2018,06,09,14,50,14.10
2018,06,09,14,51,14.10
2018,06,09,14,52,14.10
2018,06,09,14,53,14.10
2018,06,09,14,54,14.10
2018,06,09,14,55,14.10
2018,06,09,14,56,14.10
2018,06,09,14,57,14.10
2018,06,09,14,58,14.10
2018,06,09,14,59,14.20
2018,06,09,15,00,14.20
2018,06,09,15,01,14.30
2018,06,09,15,02,14.30
2018,06,09,15,03,14.30
2018,06,09,15,04,14.40
2018,06,09,15,05,14.50
2018,06,09,15,06,14.50
2018,06,09,15,07,14.70
2018,06,09,15,08,14.70
2018,06,09,15,09,14.80
2018,06,09,15,10,14.90
2018,06,09,15,11,15.00
2018,06,09,15,12,15.20
2018,06,09,15,13,15.30
2018,06,09,15,14,15.30
2018,06,09,15,15,15.40
2018,06,09,15,16,15.50
2018,06,09,15,17,15.60
2018,06,09,15,18,15.60
2018,06,09,15,19,15.80
2018,06,09,15,20,15.90
2018,06,09,15,21,15.90
2018,06,09,15,22,15.90
2018,06,09,15,23,15.90
2018,06,09,15,24,15.90
2018,06,09,15,25,16.00
2018,06,09,15,26,16.00
2018,06,09,15,27,16.10
2018,06,09,15,28,16.20
2018,06,09,15,29,16.20
2018,06,09,15,30,16.30
2018,06,09,15,31,16.40
2018,06,09,15,32,16.40
2018,06,09,15,33,16.50
2018,06,09,15,34,16.50
2018,06,09,15,35,16.50
2018,06,09,15,36,16.50
2018,06,09,15,37,16.40
2018,06,09,15,38,16.30
2018,06,09,15,39,16.20
2018,06,09,15,40,16.20
2018,06,09,15,41,16.10
2018,06,09,15,42,16.10
2018,06,09,15,43,16.10
2018,06,09,15,44,16.00
2018,06,09,15,45,15.90
2018,06,09,15,46,15.90
2018,06,09,15,47,15.80
2018,06,09,15,48,15.80
2018,06,09,15,49,15.90
2018,06,09,15,50,15.80
2018,06,09,15,51,15.90
2018,06,09,15,52,16.00
2018,06,09,15,53,16.10
2018,06,09,15,54,16.20
2018,06,09,15,55,16.30
2018,06,09,15,56,16.30
2018,06,09,15,57,16.40
2018,06,09,15,58,16.40
2018,06,09,15,59,16.40
2018,06,09,16,00,16.40
2018,06,09,16,01,16.50
2018,06,09,16,02,16.60
2018,06,09,16,03,16.70
2018,06,09,16,04,16.80
2018,06,09,16,05,16.80
2018,06,09,16,06,16.80
2018,06,09,16,07,16.80
2018,06,09,16,08,16.80
2018,06,09,16,09,16.90
2018,06,09,16,10,16.90
2018,06,09,16,11,16.90
2018,06,09,16,12,16.90
2018,06,09,16,13,16.90
2018,06,09,16,14,16.90
2018,06,09,16,15,16.90
2018,06,09,16,16,17.00
2018,06,09,16,17,17.00
2018,06,09,16,18,17.00
2018,06,09,16,19,17.10
2018,06,09,16,20,17.10
2018,06,09,16,21,17.20
2018,06,09,16,22,17.30
2018,06,09,16,23,17.40
2018,06,09,16,24,17.50
2018,06,09,16,25,17.50
2018,06,09,16,26,17.40
2018,06,09,16,27,17.40
2018,06,09,16,28,17.40
2018,06,09,16,29,17.40
2018,06,09,16,30,17.40
2018,06,09,16,31,17.50
2018,06,09,16,32,17.60
2018,06,09,16,33,17.60
2018,06,09,16,34,17.70
2018,06,09,16,35,17.70
2018,06,09,16,36,17.80
2018,06,09,16,37,17.80
2018,06,09,16,38,17.90
2018,06,09,16,39,17.90
2018,06,09,16,40,18.00
2018,06,09,16,41,18.00
2018,06,09,16,42,18.10
2018,06,09,16,43,18.10
2018,06,09,16,44,18.10
2018,06,09,16,45,18.10
2018,06,09,16,46,18.10
2018,06,09,16,47,18.10
2018,06,09,16,48,18.10
2018,06,09,16,49,18.20
2018,06,09,16,50,18.10
2018,06,09,16,51,18.10
2018,06,09,16,52,18.00
2018,06,09,16,53,18.00
2018,06,09,16,54,17.90
2018,06,09,16,55,17.80
2018,06,09,16,56,17.70
2018,06,09,16,57,17.70
2018,06,09,16,58,17.70
2018,06,09,16,59,17.60
2018,06,09,17,00,17.50
2018,06,09,17,01,17.40
2018,06,09,17,02,17.30
2018,06,09,17,03,17.30
2018,06,09,17,04,17.30
2018,06,09,17,05,17.30
2018,06,09,17,06,17.30
2018,06,09,17,07,17.40
2018,06,09,17,08,17.40
2018,06,09,17,09,17.40
2018,06,09,17,10,17.40
2018,06,09,17,11,17.40
2018,06,09,17,12,17.50
2018,06,09,17,13,17.50
2018,06,09,17,14,17.50
2018,06,09,17,15,17.40
2018,06,09,17,16,17.40
2018,06,09,17,17,17.30
2018,06,09,17,18,17.20
2018,06,09,17,19,17.10
2018,06,09,17,20,17.00
2018,06,09,17,21,16.90
2018,06,09,17,22,16.80
2018,06,09,17,23,16.80
2018,06,09,17,24,16.70
2018,06,09,17,25,16.60
2018,06,09,17,26,16.50
2018,06,09,17,27,16.50
2018,06,09,17,28,16.40
2018,06,09,17,29,16.40
2018,06,09,17,30,16.40
2018,06,09,17,31,16.40
2018,06,09,17,32,16.40
2018,06,09,17,33,16.40
2018,06,09,17,34,16.40
2018,06,09,17,35,16.40
2018,06,09,17,36,16.40
2018,06,09,17,37,16.40
2018,06,09,17,38,16.40